Torna al catalogo

STARLINK-36063

AttivoComunicazioniVLEO
NORAD 66606·PAYLOAD·🇺🇸 United States

Lanciato Nov 22, 2025 da Cape Canaveral Space Force Station

Loading…

Prossimi Passaggi (prossime 24 ore)

TLE

AggiornatoSource: CelesTrak SupGP

Epoca: Sep 15, 2026, 02:39 UTC

1 66606C 25270U   26258.11090278 -.00015500  00000+0 -56137-3 0  2586
2 66606  43.0005  66.2435 0001436 272.3183 224.5304 15.27587138    12

Traccia STARLINK-36063 in tempo reale con AllMySat

Download on the App Store